Home > Weather > Belo Horizonte > Past weeks

Flag for Brazil Weather for the Past 2 Weeks in Belo Horizonte, Minas Gerais, Brazil

Now
81 °F

Scattered clouds.


Feels Like: 81 °F
Forecast: 64 / 82 °F
Wind: 5 mph from South

Location: Belo Horizonte Airport

Current Time: May 5, 2016 at 3:35:37 PM

Latest Report: May 5, 2016 at 3:00 PM


Visibility: N/A

Pressure: 30.12 "Hg (27.31 "Hg at 860m altitude)

Humidity: 42%

Dew Point: 55 °F

Location of Belo HorizonteLocation

Historic Weather in Belo Horizonte — Graph

°F

Belo Horizonte Temperature Yesterday

Maximum temperature yesterday: 81 °F (at 2:00 PM)
Minimum temperature yesterday: 57 °F (at 6:00 AM)
Average temperature yesterday: 68 °F

High & Low Weather Summary for the Past Weeks

 TemperatureHumidityPressure
High86 °F (Apr 25, 3:00 PM)100% (Apr 26, 3:00 AM)30.24 "Hg (Apr 26, 3:00 AM)
Low55 °F (May 2, 6:00 AM)32% (Apr 23, 5:00 PM)29.92 "Hg (Apr 26, 2:00 PM)
Average70 °F70%30.08 "Hg
* Reported Apr 20 2:00 PM — May 5 2:00 PM, Belo Horizonte, Weather by CustomWeather, © 2016

Note: Actual official high and low records may vary slightly from our data, if they occured in-between our weather recording intervals... More about our weather records

Advertising

Belo Horizonte Weather History for the Previous 24 Hours

Scroll right to see more
 ConditionsComfort  
Time TempWeatherWind HumidityBarometerVisibility
2:00 PM
Thu, May 5
81 °FSunny.2 mph39%30.12 "Hg10 mi
1:00 PM77 °FScattered clouds.3 mph51%30.15 "HgN/A
12:00 PM77 °FScattered clouds.3 mph47%30.15 "HgN/A
11:00 AM75 °FPassing clouds.6 mph54%30.18 "HgN/A
10:00 AM73 °FSunny.2 mph61%30.21 "Hg10 mi
9:00 AM68 °FSunny.3 mph78%30.21 "Hg10 mi
8:00 AM63 °FSunny.2 mph88%30.18 "Hg10 mi
7:00 AM61 °FSunny.3 mph94%30.15 "Hg10 mi
6:00 AM61 °FClear.1 mph88%30.12 "Hg10 mi
5:00 AM61 °FClear.2 mph88%30.12 "Hg10 mi
4:00 AM61 °FClear.2 mph88%30.12 "Hg10 mi
3:00 AM61 °FClear.3 mph88%30.12 "Hg10 mi
2:00 AM61 °FClear.5 mph88%30.12 "Hg10 mi
1:00 AM63 °FClear.3 mph83%30.12 "Hg10 mi
12:00 AM63 °FClear.1 mph83%30.15 "Hg10 mi
11:00 PM
Wed, May 4
64 °FClear.5 mph78%30.15 "Hg10 mi
10:00 PM66 °FClear.2 mph73%30.18 "Hg10 mi
9:00 PM68 °FClear.2 mph64%30.12 "Hg10 mi
8:00 PM72 °FClear.3 mph57%30.12 "Hg10 mi
7:00 PM73 °FClear.3 mph53%30.09 "Hg10 mi
6:00 PM75 °FClear.1 mph50%30.09 "Hg10 mi
5:00 PM77 °FPassing clouds.2 mph47%30.09 "HgN/A
4:00 PM77 °FPassing clouds.2 mph44%30.09 "HgN/A
3:00 PM77 °FPassing clouds.5 mph44%30.09 "HgN/A
Weather by CustomWeather, © 2016

See weather overviewHow to use our weather pages